Location: Quebec
(46.8000°N, 71.2500°W)
Time: 01:58:45
(UTC-04:00)

OTV 5 (USA 277) - Pass Details

Date: 12 October 2017
Orbit: 404 x 417 km, 43.0° (Epoch: 07 September)

Event Time Altitude Azimuth Distance (km) Brightness Sun altitude
Rises 19:39:04 0° 243° (WSW) 2,350 ? -17.2°
Reaches altitude 10° 19:41:17 10° 234° (SW) 1,489 ? -17.6°
Maximum altitude 19:44:22 34° 167° (SSE) 708 ? -18.1°
Enters shadow 19:44:25 34° 165° (SSE) 708 ? -18.1°
